| time (UTC) | temp F | wind direction | speed MPH | gust MPH | rain 1hr in | rain 24hr in | rain mn in | humidity % | barometer mb |
| 20260906040332 | 84 | 104 | 1.0 | 6.0 | 0.00 | 0.00 | 0.00 | 74 | 1013.5 |
| 20260906035322 | 85 | 92 | 1.0 | 5.0 | 0.00 | 0.00 | 0.00 | 73 | 1013.7 |
| 20260906034332 | 85 | 118 | 1.0 | 6.0 | 0.00 | 0.00 | 0.00 | 72 | 1013.7 |
| 20260906033323 | 85 | 113 | 4.0 | 11.0 | 0.00 | 0.00 | 0.00 | 71 | 1013.5 |
| 20260906032330 | 86 | 79 | 3.0 | 8.0 | 0.00 | 0.00 | 0.00 | 70 | 1013.7 |
| 20260906031340 | 86 | 99 | 4.0 | 8.0 | 0.00 | 0.00 | 0.00 | 70 | 1013.6 |
| 20260906030332 | 86 | 76 | 4.0 | 10.0 | 0.00 | 0.00 | 0.00 | 69 | 1013.4 |
| 20260906025342 | 87 | 63 | 5.0 | 10.0 | 0.00 | 0.00 | 0.00 | 67 | 1013.2 |
| 20260906024333 | 87 | 109 | 6.0 | 11.0 | 0.00 | 0.00 | 0.00 | 65 | 1012.9 |
| 20260906023343 | 88 | 77 | 3.0 | 11.0 | 0.00 | 0.00 | 0.00 | 63 | 1012.7 |
| 20260906022325 | 88 | 83 | 4.0 | 10.0 | 0.00 | 0.00 | 0.00 | 62 | 1012.6 |
| 20260906021346 | 88 | 116 | 4.0 | 10.0 | 0.00 | 0.00 | 0.00 | 61 | 1012.4 |
| 20260906020325 | 89 | 98 | 5.0 | 13.0 | 0.00 | 0.00 | 0.00 | 61 | 1012.3 |
| 20260906015345 | 89 | 86 | 7.0 | 11.0 | 0.00 | 0.00 | 0.00 | 61 | 1012.1 |
| 20260906014327 | 90 | 84 | 3.0 | 13.0 | 0.00 | 0.00 | 0.00 | 60 | 1011.9 |
| 20260906013337 | 90 | 65 | 4.0 | 11.0 | 0.00 | 0.00 | 0.00 | 59 | 1011.8 |
| 20260906012328 | 91 | 77 | 5.0 | 11.0 | 0.00 | 0.00 | 0.00 | 59 | 1011.7 |
| 20260906011339 | 91 | 93 | 5.0 | 10.0 | 0.00 | 0.00 | 0.00 | 59 | 1011.6 |
| 20260906010330 | 92 | 73 | 4.0 | 15.0 | 0.00 | 0.00 | 0.00 | 58 | 1011.6 |
| 20260906005341 | 92 | 91 | 6.0 | 12.0 | 0.00 | 0.00 | 0.00 | 57 | 1011.5 |
| 20260906004332 | 93 | 79 | 5.0 | 12.0 | 0.00 | 0.00 | 0.00 | 57 | 1011.6 |
| 20260906003321 | 94 | 75 | 4.0 | 12.0 | 0.00 | 0.00 | 0.00 | 56 | 1011.6 |
| 20260906002332 | 94 | 96 | 8.0 | 16.0 | 0.00 | 0.00 | 0.00 | 56 | 1011.3 |
| 20260906001323 | 95 | 75 | 7.0 | 14.0 | 0.00 | 0.00 | 0.00 | 54 | 1011.3 |
| 20260906000334 | 95 | 71 | 6.0 | 10.0 | 0.00 | 0.00 | 0.00 | 54 | 1011.4 |
| 20260905235325 | 95 | 59 | 7.0 | 14.0 | 0.00 | 0.00 | 0.00 | 53 | 1011.3 |
| 20260905234336 | 98 | 68 | 5.0 | 9.0 | 0.00 | 0.00 | 0.00 | 48 | 1011.1 |
| 20260905233347 | 99 | 135 | 1.0 | 5.0 | 0.00 | 0.00 | 0.00 | 45 | 1011.0 |
| 20260905232338 | 99 | 141 | 4.0 | 9.0 | 0.00 | 0.00 | 0.00 | 44 | 1011.1 |
| 20260905231346 | 98 | 111 | 2.0 | 7.0 | 0.00 | 0.00 | 0.00 | 44 | 1011.0 |
| 20260905230327 | 97 | 72 | 3.0 | 6.0 | 0.00 | 0.00 | 0.00 | 45 | 1011.0 |
| 20260905225347 | 98 | 71 | 5.0 | 9.0 | 0.00 | 0.00 | 0.00 | 46 | 1011.0 |
| 20260905224329 | 98 | 77 | 5.0 | 9.0 | 0.00 | 0.00 | 0.00 | 45 | 1011.0 |
| 20260905223336 | 100 | 63 | 3.0 | 8.0 | 0.00 | 0.00 | 0.00 | 43 | 1011.0 |
| 20260905222327 | 100 | 132 | 0.0 | 4.0 | 0.00 | 0.00 | 0.00 | 43 | 1011.1 |
| 20260905221338 | 99 | 150 | 1.0 | 5.0 | 0.00 | 0.00 | 0.00 | 44 | 1011.2 |
| 20260905220329 | 99 | 68 | 1.0 | 6.0 | 0.00 | 0.00 | 0.00 | 44 | 1011.2 |
| 20260905215340 | 98 | 102 | 3.0 | 8.0 | 0.00 | 0.00 | 0.00 | 46 | 1011.3 |
| 20260905214332 | 99 | 206 | 1.0 | 6.0 | 0.00 | 0.00 | 0.00 | 45 | 1011.3 |
| 20260905213322 | 99 | 162 | 3.0 | 8.0 | 0.00 | 0.00 | 0.00 | 45 | 1011.4 |
| 20260905212333 | 98 | 90 | 2.0 | 7.0 | 0.00 | 0.00 | 0.00 | 46 | 1011.7 |
| 20260905211323 | 99 | 106 | 3.0 | 9.0 | 0.00 | 0.00 | 0.00 | 46 | 1011.6 |
| 20260905210334 | 99 | 126 | 2.0 | 5.0 | 0.00 | 0.00 | 0.00 | 45 | 1011.7 |
| 20260905205325 | 97 | 87 | 3.0 | 7.0 | 0.00 | 0.00 | 0.00 | 48 | 1011.9 |
| 20260905204336 | 97 | 59 | 3.0 | 7.0 | 0.00 | 0.00 | 0.00 | 48 | 1012.1 |
| 20260905203344 | 97 | 98 | 2.0 | 8.0 | 0.00 | 0.00 | 0.00 | 48 | 1012.3 |
| 20260905202335 | 98 | 123 | 6.0 | 11.0 | 0.00 | 0.00 | 0.00 | 45 | 1012.4 |
| 20260905201345 | 96 | 110 | 2.0 | 6.0 | 0.00 | 0.00 | 0.00 | 49 | 1012.5 |
| 20260905200327 | 96 | 34 | 2.0 | 6.0 | 0.00 | 0.00 | 0.00 | 50 | 1012.6 |
| 20260905195346 | 96 | 68 | 4.0 | 7.0 | 0.00 | 0.00 | 0.00 | 46 | 1012.8 |
| 20260905194328 | 96 | 233 | 2.0 | 11.0 | 0.00 | 0.00 | 0.00 | 47 | 1013.1 |
| 20260905193338 | 96 | 92 | 0.0 | 5.0 | 0.00 | 0.00 | 0.00 | 51 | 1013.1 |
| 20260905192329 | 95 | 155 | 2.0 | 5.0 | 0.00 | 0.00 | 0.00 | 50 | 1013.3 |
| 20260905191340 | 96 | 115 | 3.0 | 8.0 | 0.00 | 0.00 | 0.00 | 50 | 1013.5 |
| 20260905190330 | 96 | 107 | 3.0 | 5.0 | 0.00 | 0.00 | 0.00 | 51 | 1013.7 |
| 20260905185337 | 96 | 253 | 2.0 | 10.0 | 0.00 | 0.00 | 0.00 | 51 | 1013.9 |
| 20260905184328 | 96 | 179 | 2.0 | 11.0 | 0.00 | 0.00 | 0.00 | 52 | 1014.0 |
| 20260905183339 | 96 | 168 | 4.0 | 10.0 | 0.00 | 0.00 | 0.00 | 51 | 1014.2 |
| 20260905182329 | 96 | 144 | 3.0 | 7.0 | 0.00 | 0.00 | 0.00 | 52 | 1014.4 |
| 20260905181340 | 96 | 235 | 3.0 | 7.0 | 0.00 | 0.00 | 0.00 | 52 | 1014.5 |
| 20260905180330 | 94 | 152 | 3.0 | 7.0 | 0.00 | 0.00 | 0.00 | 56 | 1014.8 |
| 20260905175341 | 95 | 275 | 1.0 | 7.0 | 0.00 | 0.00 | 0.00 | 53 | 1015.0 |
| 20260905174333 | 94 | 139 | 4.0 | 9.0 | 0.00 | 0.00 | 0.00 | 54 | 1015.1 |
| 20260905173342 | 94 | 161 | 5.0 | 8.0 | 0.00 | 0.00 | 0.00 | 55 | 1015.3 |
| 20260905172333 | 92 | 113 | 1.0 | 7.0 | 0.00 | 0.00 | 0.00 | 60 | 1015.3 |
| 20260905171345 | 92 | 219 | 3.0 | 7.0 | 0.00 | 0.00 | 0.00 | 60 | 1015.4 |
| 20260905170326 | 92 | 94 | 4.0 | 8.0 | 0.00 | 0.00 | 0.00 | 61 | 1015.4 |
| 20260905165347 | 93 | 241 | 2.0 | 10.0 | 0.00 | 0.00 | 0.00 | 60 | 1015.6 |
| 20260905164328 | 93 | 207 | 2.0 | 6.0 | 0.00 | 0.00 | 0.00 | 62 | 1015.7 |
| 20260905163339 | 91 | 240 | 2.0 | 8.0 | 0.00 | 0.00 | 0.00 | 63 | 1015.7 |
| 20260905162330 | 91 | 233 | 3.0 | 8.0 | 0.00 | 0.00 | 0.00 | 64 | 1015.8 |
| 20260905161341 | 91 | 194 | 2.0 | 8.0 | 0.00 | 0.00 | 0.00 | 65 | 1015.9 |
| 20260905160332 | 91 | 210 | 1.0 | 12.0 | 0.00 | 0.00 | 0.00 | 66 | 1015.5 |
| 20260905155322 | 90 | 140 | 2.0 | 7.0 | 0.00 | 0.00 | 0.00 | 67 | 1015.6 |
| 20260905154334 | 89 | 214 | 3.0 | 8.0 | 0.00 | 0.00 | 0.00 | 69 | 1015.6 |
| 20260905153325 | 89 | 212 | 2.0 | 8.0 | 0.00 | 0.00 | 0.00 | 69 | 1015.7 |
| 20260905152335 | 89 | 233 | 1.0 | 6.0 | 0.00 | 0.00 | 0.00 | 71 | 1015.7 |
| 20260905144336 | 86 | 183 | 2.0 | 5.0 | 0.00 | 0.00 | 0.00 | 80 | 1015.6 |
| 20260905143327 | 85 | 112 | 4.0 | 8.0 | 0.00 | 0.00 | 0.00 | 81 | 1015.6 |
| 20260905142338 | 84 | 276 | 2.0 | 6.0 | 0.00 | 0.00 | 0.00 | 84 | 1015.7 |
| 20260905141328 | 83 | 165 | 0.0 | 4.0 | 0.00 | 0.00 | 0.00 | 87 | 1015.5 |
| 20260905140340 | 82 | 207 | 1.0 | 5.0 | 0.00 | 0.00 | 0.00 | 88 | 1015.4 |
| 20260905135330 | 82 | 205 | 2.0 | 5.0 | 0.00 | 0.02 | 0.00 | 88 | 1015.4 |
| 20260905134340 | 83 | 127 | 1.0 | 4.0 | 0.00 | 0.02 | 0.00 | 88 | 1015.3 |
| 20260905133330 | 83 | 140 | 0.0 | 3.0 | 0.00 | 0.02 | 0.00 | 89 | 1015.2 |
| 20260905132341 | 81 | 145 | 0.0 | 1.0 | 0.00 | 0.02 | 0.00 | 90 | 1015.1 |
| 20260905131332 | 80 | 145 | 0.0 | 1.0 | 0.00 | 0.02 | 0.00 | 91 | 1015.0 |
| 20260905130342 | 79 | 146 | 0.0 | 1.0 | 0.00 | 0.02 | 0.00 | 92 | 1014.8 |
| 20260905125325 | 78 | 145 | 0.0 | 0.0 | 0.00 | 0.07 | 0.00 | 93 | 1014.8 |
| 20260905124344 | 78 | 145 | 0.0 | 0.0 | 0.00 | 0.07 | 0.00 | 94 | 1014.7 |
| 20260905123326 | 76 | 145 | 0.0 | 1.0 | 0.00 | 0.07 | 0.00 | 96 | 1014.5 |
| 20260905122333 | 75 | 145 | 0.0 | 0.0 | 0.00 | 0.07 | 0.00 | 97 | 1014.5 |
| 20260905121323 | 75 | 145 | 0.0 | 0.0 | 0.00 | 0.07 | 0.00 | 97 | 1014.4 |
| 20260905120334 | 75 | 145 | 0.0 | 0.0 | 0.00 | 0.07 | 0.00 | 97 | 1014.3 |
| 20260905115324 | 75 | 145 | 0.0 | 1.0 | 0.00 | 0.07 | 0.00 | 97 | 1014.1 |
| 20260905114335 | 75 | 145 | 0.0 | 0.0 | 0.00 | 0.07 | 0.00 | 97 | 1014.1 |
| 20260905113326 | 75 | 145 | 0.0 | 1.0 | 0.00 | 0.07 | 0.00 | 97 | 1014.0 |
| 20260905112336 | 75 | 145 | 0.0 | 0.0 | 0.00 | 0.07 | 0.00 | 97 | 1014.0 |
| 20260905111327 | 76 | 145 | 0.0 | 0.0 | 0.00 | 0.07 | 0.00 | 96 | 1013.8 |
| 20260905110337 | 76 | 145 | 0.0 | 0.0 | 0.00 | 0.07 | 0.00 | 96 | 1013.9 |
| 20260905105328 | 76 | 145 | 0.0 | 0.0 | 0.00 | 0.07 | 0.00 | 96 | 1013.9 |
| 20260905104339 | 76 | 145 | 0.0 | 0.0 | 0.00 | 0.07 | 0.00 | 95 | 1013.8 |
| 20260905103329 | 76 | 145 | 0.0 | 0.0 | 0.00 | 0.07 | 0.00 | 95 | 1013.9 |
| 20260905102340 | 77 | 145 | 0.0 | 0.0 | 0.00 | 0.07 | 0.00 | 95 | 1014.0 |
| 20260905101350 | 77 | 145 | 0.0 | 0.0 | 0.00 | 0.07 | 0.00 | 94 | 1013.9 |
| 20260905100341 | 77 | 145 | 0.0 | 0.0 | 0.00 | 0.07 | 0.00 | 94 | 1013.9 |
| 20260905095323 | 77 | 145 | 0.0 | 0.0 | 0.00 | 0.07 | 0.00 | 94 | 1014.0 |
| 20260905094333 | 77 | 145 | 0.0 | 0.0 | 0.00 | 0.07 | 0.00 | 94 | 1013.8 |
| 20260905093324 | 78 | 145 | 0.0 | 1.0 | 0.00 | 0.07 | 0.00 | 93 | 1013.8 |
| 20260905092334 | 78 | 145 | 1.0 | 4.0 | 0.00 | 0.07 | 0.00 | 92 | 1013.7 |
| 20260905091325 | 78 | 200 | 0.0 | 6.0 | 0.00 | 0.07 | 0.00 | 92 | 1013.8 |
| 20260905090336 | 78 | 160 | 0.0 | 5.0 | 0.00 | 0.07 | 0.00 | 92 | 1013.8 |
| 20260905085326 | 78 | 126 | 1.0 | 4.0 | 0.00 | 0.07 | 0.00 | 92 | 1013.9 |
| 20260905084338 | 78 | 172 | 1.0 | 3.0 | 0.00 | 0.07 | 0.00 | 92 | 1013.9 |
| 20260905083326 | 78 | 170 | 1.0 | 5.0 | 0.00 | 0.07 | 0.00 | 91 | 1014.0 |
| 20260905082338 | 78 | 196 | 0.0 | 4.0 | 0.00 | 0.07 | 0.00 | 91 | 1014.0 |
| 20260905081329 | 79 | 165 | 0.0 | 2.0 | 0.00 | 0.07 | 0.00 | 90 | 1014.0 |
| 20260905080335 | 79 | 176 | 1.0 | 3.0 | 0.00 | 0.07 | 0.00 | 90 | 1014.0 |
| 20260905075324 | 79 | 159 | 0.0 | 2.0 | 0.00 | 0.07 | 0.00 | 89 | 1014.1 |
| 20260905074335 | 79 | 147 | 1.0 | 4.0 | 0.00 | 0.07 | 0.00 | 88 | 1014.0 |
| 20260905073327 | 79 | 188 | 1.0 | 3.0 | 0.00 | 0.07 | 0.00 | 88 | 1014.2 |
| 20260905072338 | 79 | 133 | 1.0 | 3.0 | 0.00 | 0.07 | 0.00 | 87 | 1014.2 |
| 20260905071329 | 79 | 145 | 1.0 | 3.0 | 0.00 | 0.07 | 0.00 | 87 | 1014.2 |
| 20260905070339 | 80 | 151 | 1.0 | 3.0 | 0.00 | 0.07 | 0.00 | 86 | 1014.4 |
| 20260905065350 | 80 | 187 | 2.0 | 5.0 | 0.00 | 0.07 | 0.00 | 86 | 1014.4 |
| 20260905064340 | 80 | 136 | 2.0 | 5.0 | 0.00 | 0.07 | 0.00 | 85 | 1014.4 |
| 20260905063323 | 80 | 141 | 1.0 | 6.0 | 0.00 | 0.07 | 0.00 | 84 | 1014.5 |
| 20260905062332 | 80 | 145 | 0.0 | 4.0 | 0.00 | 0.07 | 0.00 | 84 | 1014.5 |
| 20260905061324 | 81 | 133 | 1.0 | 4.0 | 0.00 | 0.07 | 0.00 | 83 | 1014.5 |
| 20260905060335 | 81 | 164 | 1.0 | 6.0 | 0.00 | 0.07 | 0.00 | 82 | 1014.5 |
| 20260905055322 | 81 | 195 | 0.0 | 6.0 | 0.00 | 0.07 | 0.00 | 81 | 1014.5 |
| 20260905054333 | 81 | 203 | 2.0 | 5.0 | 0.00 | 0.07 | 0.00 | 81 | 1014.7 |
| 20260905053322 | 81 | 167 | 2.0 | 6.0 | 0.00 | 0.07 | 0.00 | 80 | 1014.4 |
| 20260905052332 | 81 | 143 | 2.0 | 7.0 | 0.00 | 0.07 | 0.00 | 80 | 1014.5 |
| 20260905051323 | 82 | 149 | 2.0 | 6.0 | 0.00 | 0.07 | 0.00 | 80 | 1014.6 |
| 20260905050334 | 82 | 153 | 2.0 | 6.0 | 0.00 | 0.07 | 0.00 | 80 | 1014.6 |
| 20260905045325 | 82 | 141 | 1.0 | 4.0 | 0.00 | 0.07 | 0.07 | 80 | 1014.7 |
| 20260905044335 | 82 | 154 | 0.0 | 5.0 | 0.00 | 0.07 | 0.07 | 80 | 1014.6 |
| 20260905043326 | 82 | 144 | 2.0 | 7.0 | 0.00 | 0.07 | 0.07 | 79 | 1014.5 |
| 20260905042337 | 82 | 124 | 1.0 | 7.0 | 0.00 | 0.07 | 0.07 | 79 | 1014.6 |
| 20260905041328 | 83 | 134 | 2.0 | 7.0 | 0.00 | 0.07 | 0.07 | 78 | 1014.5 |